Lid_Strength_Index
6 6 6 4 4 5 5 5 10 3 2 9 9 12 11 10 10 9 10 11 11 11 11 12 12 12 10 9 10 12 12 14 17 14 12 11 12 13 13 16 17 18 18 16
6 7 6 6 5 5 4 8 8 3 4 13 12 9 9 10 11 11 11 11 10 10 11 14 12 11 9 9 10 12 12 14 18 16 13 12 14 13 12 13 15 16 18 16
6 6 6 6 6 5 4 9 14 9 6 7 10 11 11 11 9 9 10 11 10 11 12 10 12 12 10 10 10 9 9 13 15 17 15 13 14 13 12 13 18 17 15 14
6 6 6 6 5 4 6 9 13 10 13 11 10 9 10 12 12 9 9 10 10 10 13 12 12 11 12 11 9 10 11 14 13 12 12 12 13 13 12 13 13 16 14 14
5 5 6 5 5 5 9 13 12 11 11 9 10 10 11 11 11 10 11 11 10 10 12 11 13 11 11 11 11 11 11 15 14 15 12 12 14 13 12 12 12 12 13 13
4 5 5 5 5 6 10 9 10 10 10 10 11 11 11 11 9 8 8 9 10 11 10 8 8 8 8 9 10 13 13 14 15 17 13 14 17 14 13 12 11 12 15 11
5 4 5 5 5 6 9 10 10 11 14 11 11 9 9 10 9 10 8 8 10 8 8 8 10 11 11 9 10 10 13 13 14 17 15 21 14 12 11 12 11 10 10 9
5 5 4 5 5 5 9 10 10 12 14 11 11 10 9 9 8 9 9 8 7 7 9 14 14 16 15 13 10 11 10 12 16 18 18 15 13 13 14 14 14 11 11 10
5 5 4 5 5 6 8 10 9 12 15 14 10 11 10 11 11 12 12 10 8 9 13 15 16 17 15 16 14 11 11 10 14 17 19 20 15 14 11 11 16 11 10 10
4 4 4 4 5 5 8 10 8 13 16 13 12 12 11 10 10 11 13 11 11 10 15 16 16 16 13 16 16 16 15 15 16 16 18 16 12 13 11 17 16 13 12 12
4 4 4 4 4 5 7 9 8 11 15 14 11 11 12 11 10 13 14 12 14 15 14 15 16 16 15 15 14 15 15 16 16 15 17 19 11 12 15 13 13 13 13 13
2 3 3 3 4 4 5 10 8 8 12 14 10 10 9 10 9 11 12 12 13 11 13 14 14 16 15 15 17 13 15 13 15 14 14 11 10 11 11 12 13 13 13 13
1 0 0 1 2 3 5 8 8 9 11 12 12 12 10 8 8 7 12 12 11 12 11 13 14 16 14 16 15 15 13 11 14 13 12 11 11 11 11 11 12 12 13 13
2 1 0 0 0 0 1 6 8 8 11 15 14 10 11 9 8 8 8 9 9 10 11 15 15 16 13 15 13 13 12 12 13 13 12 11 10 10 12 13 13 13 13 13
1 1 1 0 0 -0 1 2 4 4 9 14 14 12 10 10 8 8 8 9 10 13 15 15 16 14 13 13 13 14 12 13 14 14 11 10 11 11 11 13 12 11 11 11
1 1 1 1 1 1 3 6 3 2 4 11 13 11 12 10 10 9 9 9 10 12 14 14 14 12 13 15 15 12 11 9 9 10 10 10 10 11 11 11 11 10 10 10
1 1 0 0 0 1 5 7 5 1 2 8 11 12 9 8 9 10 11 9 10 11 13 14 14 14 12 14 15 13 11 10 9 10 11 12 11 12 10 10 10 10 10 10
1 0 0 0 -0 1 4 4 0 0 5 5 10 11 10 7 10 11 9 11 11 12 12 13 13 12 13 16 13 11 12 11 10 11 11 11 11 10 11 10 10 11 11 12
0 0 0 2 5 8 5 -0 0 3 6 9 10 13 13 7 8 8 9 8 12 10 13 13 12 14 16 14 13 12 11 12 11 10 10 10 11 11 11 11 11 12 12 13
1 3 6 9 7 1 2 5 7 8 8 8 11 10 11 8 9 10 11 10 12 16 13 11 13 14 12 12 11 11 11 11 10 12 12 11 11 11 12 12 11 12 12 12
6 10 10 5 2 5 7 9 10 11 12 10 10 10 11 9 13 14 11 13 14 15 14 14 15 16 14 11 11 10 9 9 9 9 10 10 10 12 12 12 12 12 12 12
6 6 5 5 7 9 11 12 11 13 14 11 10 11 9 9 9 12 11 14 12 15 12 14 17 14 11 10 10 9 8 9 9 9 10 11 11 11 12 12 12 12 12 13
5 7 8 12 12 18 17 17 14 15 11 10 9 11 9 9 9 11 11 14 16 11 16 17 14 12 9 10 9 10 9 9 10 10 10 10 11 11 12 13 13 14 13 13
10 12 15 13 16 14 13 12 12 11 10 8 10 10 12 12 11 12 15 12 12 14 18 16 14 11 10 10 10 10 11 11 11 11 11 12 12 16 18 18 17 16 16 16
11 11 17 14 12 11 12 11 10 10 8 9 11 12 12 12 12 11 12 15 15 15 15 14 13 9 10 10 10 11 11 12 12 11 13 14 15 14 14 15 14 12 16 17
10 11 13 11 11 10 10 10 10 8 9 10 10 12 13 14 13 13 15 15 16 15 14 12 9 10 10 10 10 11 11 11 11 11 10 11 14 13 11 11 12 17 17 18
10 11 12 13 13 13 11 10 10 8 11 13 11 15 15 14 15 15 14 17 15 11 11 10 10 10 10 10 10 11 10 10 10 10 10 11 11 12 11 12 12 12 12 17